Torna al catalogo

ONDOSAT-OWL-5

AttivoMeteoVLEO
NORAD 62396·PAYLOAD·🇲🇳 Mongolia
Questo nome del satellite non è ancora stato confermato da fonti ufficiali.

Lanciato Dec 21, 2024 da Vandenberg Space Force Base

Loading…

Prossimi Passaggi (prossime 24 ore)

TLE

AggiornatoSource: Space-Track

Epoca: Sep 13, 2026, 23:26 UTC

1 62396U 24247V   26256.97694171  .00064692  00000-0  73762-3 0  9995
2 62396  44.9893 102.9030 0007884 213.1537 146.8866 15.61389991 97310

Traccia ONDOSAT-OWL-5 in tempo reale con AllMySat

Download on the App Store